Regional Weather Roundup
Issued by NWS

Home | Current Version | Previous Version | Graphics & Text | Print | Product List | Glossary On
Versions: 1 2 3 4 5 6 7 8 9 10 11 12 13 14 15 16 17 18 19 20 21 22 23 24 25 26 27 28 29 30 31 32 33 34 35 36 37 38 39 40 41 42 43 44 45 46 47 48 49 50
000
ASUS45 KBOI 221510
RWRID
WEATHER ROUNDUP FOR IDAHO
NATIONAL WEATHER SERVICE BOISE ID
900 AM MDT MON SEP 22 2014

NOTE: "FAIR" INDICATES FEW OR NO CLOUDS BELOW 12000 FEET
WITH NO SIGNIFICANT WEATHER AND/OR OBSTRUCTIONS TO VISIBILITY

IDZ012-014-221600-
SOUTHWEST IDAHO


CITY           SKY/WX    TMP DP  RH WIND       PRES   REMARKS
BOISE          PTSUNNY   64  56  75 SE7       30.05R
CALDWELL       PTSUNNY   64  52  63 S8        30.06R
MOUNTAIN HOME  MOSUNNY   60  60 100 E6        30.07R
$$

IDZ016-017-221600-
SOUTHCENTRAL IDAHO


CITY           SKY/WX    TMP DP  RH WIND       PRES   REMARKS
BURLEY         MOSUNNY   58  52  80 S10       30.12R
JEROME         CLOUDY    57  50  77 SE5       30.12R
TWIN FALLS     CLOUDY    61  49  64 S9        30.11R
$$

IDZ019>023-221600-
SOUTHEAST IDAHO


CITY           SKY/WX    TMP DP  RH WIND       PRES   REMARKS
IDAHO FALLS    CLOUDY    57  54  89 S3        30.16R
POCATELLO      PTSUNNY   58  57  97 NW5       30.15R
REXBURG        CLOUDY    54  53  97 CALM      30.16S
$$

IDZ006-010-011-018-031-032-221600-
CENTRAL IDAHO MOUNTAINS


CITY           SKY/WX    TMP DP  RH WIND       PRES   REMARKS
MCCALL         CLOUDY    55  49  80 CALM      30.12S
HAILEY         PTSUNNY   54  54 100 W7        30.18S
STANLEY          N/A     51  49  92 S8        30.20F
SALMON         CLOUDY    63  52  67 CALM      30.08R
CHALLIS        CLOUDY    55  54  96 NW3       30.14R
$$

IDZ002-004-006-007-026-221600-
NORTHERN IDAHO


CITY           SKY/WX    TMP DP  RH WIND       PRES   REMARKS
LEWISTON       CLOUDY    65  46  50 E3        29.91S
LOWELL           N/A     55  51  86 CALM      30.00R
COEUR D`ALENE  MOSUNNY   57  48  72 SE3       29.94S
MULLAN PASS    PTSUNNY   60  39  45 NW3       30.10R
$$


USA.gov is the U.S. government's official web portal to all federal, state and local government web resources and services.